Вернуться в каталог

CZ-6A DEB

АктивенPO
NORAD 61119·DEBRIS·🇨🇳 China

Запущен Aug 6, 2024 с Taiyuan Satellite Launch Center

Loading…

Ближайшие Пролёты (ближайшие 24 часа)

TLE

СвежийSource: Space-Track

Эпоха: Sep 13, 2026, 23:43 UTC

1 61119U 24140PM  26256.98857369  .00026214  00000-0  19770-2 0  9996
2 61119  89.0240 260.0337 0042036 217.7786 142.0497 15.01622459111507

Отслеживайте CZ-6A DEB в реальном времени с AllMySat

Download on the App Store